軌道要素
Epoch 2012 Sept. 30.0 TT = JDT 2456200.5
T 2012 Sept. 30.33753 TT MPC
q 2.0768620 (2000.0) P Q
n 0.14326381 Peri. 172.30311 +0.47516421 +0.86021981
a 3.6172488 Node 125.88035 -0.81896890 +0.50926606
e 0.4258449 Incl. 13.20169 -0.32172802 -0.02588334
P 6.88
From 130 observations 2012 May 21-Sept. 9, mean residual 0".5.
|